Über Starlink 1151
Group: 3 satellites
Beschreibung wird geladen...
Live-Position
3D-Globus wird geladen...
Nächste Überflüge
Höhenverlauf
Altitude vs Time
uPlot chart will show altitude changes over time
Zweizeiliger Elementsatz
1 45081U 20006AP 26036.00002314 .00160388 00000-0 25145-2 0 9998
2 45081 53.0528 38.4781 0010994 32.5733 84.6633 15.52602577 5757
Epoch: 5. Feb. 2026 •
Age: 11 hours
Aktueller Status
Höhe 417.0 km
Geschwindigkeit 7.66 km/s
Subsatellitenpunkt -5.03°S,
82.24°W
Startdatum 29. Jan. 2020
Alter 6 years
Typ internet
Startgruppe
Falcon 9 •
Launch 3 •
19 satellites
Starlink 1132
45044
Starlink 1131 45047
Starlink 1134 45048
Starlink 1156 45054
Starlink 1159 45057
Starlink 1166 45060
Starlink 1169 45061
Starlink 1171 45062
Starlink 1133 45064
Starlink 1167 45071
Starlink 1168 45072
Starlink 1172 45074
Starlink 1153 45080
Starlink 1185 45087
Starlink 1183 45088
Starlink 1152 45096
Starlink 1184 45098
Starlink 1193 45100
Technische Details
Klassifizierung Payload
Masse 260.00 kg
Trockenmasse 248.00 kg
Gesamtmasse 260.00 kg
Länge 0.20 m
Durchmesser 2.80 m
Spannweite 9.00 m
Form Box + pan
Hersteller SPXS
Bus-Typ Starlink
Phasenstatus In Orbit
Besitzer/Staat SPXS/US
Große Konstellationen
Loading constellations...